SL-12 R/B(AUX MOTOR), 29680

Orbit data source: Space-Track

SL-12 R/B(AUX MOTOR), 29680 is space debris in HEO originally from a launch on Mon, 25 Dec 2006 UTC launched from the Tyuratam Missile And Space Complex (TTMTR). Debris objects in space refer to the collection of defunct objects orbiting the Earth. Examples of debris include non-operational satellites, rocket bodies, and fragments generated from explosions, collisions, or faulty payload assembly.

Loading next visibility...
Identifier
29680, 2006-062G
Orbit
HEO
Country
Flag of CISCIS
Related business
Manufacturer
RKKE
Mission
Spacecraft
Bus & Motor
SOZ, Unknown motor
Mass
56 kg wet, 56 kg dry
Launch date (UTC)
2006-12-25 (19 years ago)
Launch vehicle
Unknown
Launch site
Tyuratam Missile And Space Complex (TTMTR)
Object type
Payload
Rocket body
Debris
Shape & HBR
Cyl, 0.6 m
Radar Cross Section
0.660 m², Medium (>0.1 m² and < 1m²)

Expand to show TLE details & history
Last TLE update: 1 day ago

TLE from 1 day ago
0 SL-12 R/B(AUX MOTOR)
1 29680U 06062G   26033.37108756  .00000208  00000-0  63412-3 0  9999
2 29680  65.1459  83.6750 5709705 217.6380  83.9625  4.25914475194699
Epoch: 2026-02-02T08:54Z
TLE epoch observation values (Epoch: 2026-02-02T08:54:21.965Z)
Latitude
0.00002°
Longitude
177.52877°
Altitude
13,404.169 km
Speed
3.938 km/s
True Right ascension
05h 34m 45s
True Declination
0° 00' 00"
Sunlit
Object was in daylight at epoch
Visualization orbit readout
Latitude
Unknown
Longitude
Unknown
Altitude
Unknown
Speed
Unknown
Apparent Right ascension
Unknown
Apparent Declination
Unknown
Sunlit
N/A
Visualization observer readout
Local Sidereal Time
17:28:44
Azimuth
Unknown
Elevation
Unknown
Doppler factor
Unknown
Orbital elements
Apogee altitude
18,875.491 km
Perigee altitude
518.588 km
Semi-major axis
16,075.176 km
Eccentricity
0.57097
Inclination
65.1459°
RAAN
83.675°
Arg. of periapsis
217.638°
True anomaly
142.42634°
Mean anomaly
83.9625°
Eccentric anomaly
113.87692°
Mean motion
1.0649 °/min
Orbital period
338.06 mins
BSTAR
0.00063412
Loading maneuver chart data...
Computing Atmospheric mass density...
Loading historical data...
Loading historical data...
Loading historical data...
Loading historical data...
Loading historical data...
Loading historical data...
Loading historical data...

Documentation

Showing up to 5 results
|